Location: St. Louis
(38.6270°N, 90.1994°W)
Time: 07:12:17
(UTC-06:00)

Transit 2A - Pass Details

Date: 08 December 2021
Orbit: 591 x 967 km, 66.7° (Epoch: 20 January)

Event Time Altitude Azimuth Distance (km) Brightness Sun altitude
Rises 07:30:38 0° 335° (NNW) 3,662 9.0 3.2°
Reaches altitude 10° 07:33:19 10° 340° (NNW) 2,707 8.4 3.7°
Maximum altitude 07:39:33 54° 57° (ENE) 1,126 7.2 4.7°
Drops below altitude 10° 07:45:27 10° 134° (SE) 2,558 11.1 5.6°
Sets 07:47:55 0° 139° (SE) 3,445 11.4 6.0°
